When you browse on this site, cookies collect data to enhance your experience and personalize the content and advertising you see.
Visit our Privacy Policy to learn more. By continuing to use the site, you agree to this use of cookies and data.

Hourly Weather Ricaurte

Today, 7 August, Friday

Time Temperature Precipitation Wind Pressure Humidity
00:00 +28°C° 0 mm 1 mps 738 mmHg 57%
01:00 +26°C° 0 mm 0 mps 737 mmHg 59%
02:00 +25°C° 0 mm 0 mps 737 mmHg 59%
03:00 +25°C° 0 mm 0 mps 737 mmHg 59%
04:00 +25°C° 0 mm 0 mps 737 mmHg 60%
05:00 +25°C° 0 mm 0 mps 737 mmHg 61%
06:00 +25°C° 0 mm 0 mps 737 mmHg 62%
07:00 +26°C° 0 mm 0 mps 738 mmHg 64%
08:00 +29°C° 0 mm 1 mps 738 mmHg 58%
09:00 +31°C° 0 mm 1 mps 738 mmHg 53%
10:00 +34°C° 0 mm 2 mps 739 mmHg 47%
11:00 +35°C° 0.1 mm 3 mps 738 mmHg 45%
12:00 +36°C° 0.1 mm 4 mps 737 mmHg 42%
13:00 +36°C° 0.1 mm 5 mps 737 mmHg 40%
14:00 +35°C° 0.1 mm 5 mps 736 mmHg 43%
15:00 +34°C° 0.1 mm 5 mps 736 mmHg 46%
16:00 +33°C° 0.1 mm 5 mps 735 mmHg 49%
17:00 +32°C° 0 mm 4 mps 736 mmHg 51%
18:00 +30°C° 0 mm 2 mps 736 mmHg 54%
19:00 +30°C° 0 mm 1 mps 737 mmHg 57%
20:00 +29°C° 0 mm 1 mps 737 mmHg 58%
21:00 +29°C° 0 mm 1 mps 738 mmHg 59%
22:00 +28°C° 0 mm 1 mps 738 mmHg 60%
23:00 +28°C° 0 mm 1 mps 738 mmHg 61%

Tomorrow, 8 August, Saturday

Time Temperature Precipitation Wind Pressure Humidity
00:00 +27°C° 0 mm 1 mps 738 mmHg 63%
01:00 +27°C° 0 mm 1 mps 738 mmHg 64%
02:00 +27°C° 0 mm 1 mps 737 mmHg 64%
03:00 +27°C° 0 mm 1 mps 737 mmHg 65%
04:00 +27°C° 0 mm 1 mps 737 mmHg 65%
05:00 +27°C° 0 mm 1 mps 738 mmHg 66%
06:00 +27°C° 0 mm 1 mps 738 mmHg 67%
07:00 +27°C° 0 mm 1 mps 738 mmHg 68%
08:00 +28°C° 0 mm 1 mps 739 mmHg 64%
09:00 +30°C° 0 mm 2 mps 739 mmHg 60%
10:00 +31°C° 0 mm 3 mps 739 mmHg 56%
11:00 +33°C° 0.1 mm 3 mps 739 mmHg 52%
12:00 +35°C° 0.1 mm 4 mps 738 mmHg 49%
13:00 +36°C° 0.1 mm 5 mps 737 mmHg 45%
14:00 +35°C° 0.1 mm 4 mps 737 mmHg 46%
15:00 +35°C° 0.1 mm 4 mps 736 mmHg 47%
16:00 +34°C° 0.1 mm 4 mps 735 mmHg 49%
17:00 +33°C° 0 mm 3 mps 736 mmHg 51%
18:00 +31°C° 0 mm 2 mps 736 mmHg 54%
19:00 +29°C° 0 mm 2 mps 737 mmHg 57%
20:00 +29°C° 0 mm 1 mps 737 mmHg 58%
21:00 +28°C° 0 mm 1 mps 738 mmHg 59%
22:00 +28°C° 0 mm 1 mps 739 mmHg 60%
23:00 +27°C° 0 mm 1 mps 738 mmHg 62%

Day after tomorrow, 9 August, Sunday

Time Temperature Precipitation Wind Pressure Humidity
00:00 +27°C° 0 mm 1 mps 738 mmHg 63%
01:00 +26°C° 0 mm 1 mps 738 mmHg 64%
02:00 +26°C° 0 mm 1 mps 737 mmHg 65%
03:00 +25°C° 0 mm 1 mps 737 mmHg 66%
04:00 +25°C° 0 mm 1 mps 737 mmHg 67%
05:00 +26°C° 0 mm 1 mps 737 mmHg 66%
06:00 +26°C° 0 mm 1 mps 737 mmHg 64%
07:00 +27°C° 0 mm 1 mps 738 mmHg 63%
08:00 +29°C° 0 mm 1 mps 738 mmHg 57%
09:00 +31°C° 0 mm 2 mps 738 mmHg 51%
10:00 +34°C° 0 mm 2 mps 738 mmHg 46%
11:00 +35°C° 0.1 mm 3 mps 738 mmHg 43%
12:00 +36°C° 0.1 mm 3 mps 737 mmHg 40%
13:00 +38°C° 0.1 mm 4 mps 736 mmHg 36%
14:00 +38°C° 0.1 mm 3 mps 736 mmHg 37%
15:00 +38°C° 0.1 mm 3 mps 735 mmHg 37%
16:00 +38°C° 0.1 mm 3 mps 734 mmHg 37%
17:00 +36°C° 0 mm 2 mps 735 mmHg 41%
18:00 +34°C° 0 mm 2 mps 735 mmHg 44%
19:00 +31°C° 0 mm 2 mps 736 mmHg 48%
20:00 +31°C° 0 mm 2 mps 736 mmHg 50%
21:00 +30°C° 0 mm 2 mps 737 mmHg 51%
22:00 +30°C° 0 mm 1 mps 738 mmHg 53%
23:00 +29°C° 0 mm 1 mps 737 mmHg 54%

10 August, Monday

Time Temperature Precipitation Wind Pressure Humidity
00:00 +28°C° 0 mm 1 mps 737 mmHg 56%
01:00 +27°C° 0 mm 1 mps 737 mmHg 57%
02:00 +25°C° 0 mm 0 mps 737 mmHg 57%
03:00 +25°C° 0 mm 0 mps 736 mmHg 58%
04:00 +25°C° 0 mm 0 mps 736 mmHg 58%
05:00 +25°C° 0 mm 0 mps 736 mmHg 58%
06:00 +25°C° 0 mm 0 mps 737 mmHg 58%
07:00 +28°C° 0 mm 1 mps 737 mmHg 59%
08:00 +29°C° 0 mm 1 mps 737 mmHg 54%
09:00 +31°C° 0 mm 1 mps 737 mmHg 49%
10:00 +34°C° 0 mm 2 mps 737 mmHg 44%
11:00 +35°C° 0 mm 2 mps 736 mmHg 41%
12:00 +37°C° 0 mm 3 mps 735 mmHg 38%
13:00 +38°C° 0 mm 3 mps 734 mmHg 34%
14:00 +39°C° 0 mm 3 mps 734 mmHg 34%
15:00 +39°C° 0 mm 2 mps 733 mmHg 33%
16:00 +39°C° 0 mm 2 mps 732 mmHg 32%
17:00 +37°C° 0 mm 2 mps 733 mmHg 37%
18:00 +35°C° 0 mm 2 mps 734 mmHg 42%
19:00 +32°C° 0 mm 2 mps 734 mmHg 47%
20:00 +31°C° 0 mm 1 mps 735 mmHg 48%
21:00 +31°C° 0 mm 1 mps 736 mmHg 49%
22:00 +30°C° 0 mm 1 mps 736 mmHg 50%
23:00 +30°C° 0.1 mm 1 mps 736 mmHg 52%

11 August, Tuesday

Time Temperature Precipitation Wind Pressure Humidity
00:00 +29°C° 0.1 mm 1 mps 736 mmHg 55%
01:00 +27°C° 0.1 mm 0 mps 735 mmHg 57%
02:00 +26°C° 0.1 mm 0 mps 735 mmHg 61%
03:00 +26°C° 0.1 mm 0 mps 735 mmHg 65%
04:00 +25°C° 0.1 mm 0 mps 735 mmHg 70%
05:00 +25°C° 0.1 mm 0 mps 735 mmHg 70%
06:00 +25°C° 0.1 mm 0 mps 736 mmHg 70%
07:00 +26°C° 0.1 mm 0 mps 736 mmHg 70%
08:00 +30°C° 0 mm 1 mps 736 mmHg 63%
09:00 +31°C° 0 mm 1 mps 736 mmHg 56%
10:00 +34°C° 0 mm 2 mps 736 mmHg 48%
11:00 +36°C° 0 mm 2 mps 735 mmHg 44%
12:00 +37°C° 0 mm 2 mps 734 mmHg 40%
13:00 +38°C° 0 mm 3 mps 733 mmHg 36%
14:00 +39°C° 0 mm 2 mps 733 mmHg 35%
15:00 +39°C° 0 mm 2 mps 732 mmHg 34%
16:00 +39°C° 0 mm 2 mps 732 mmHg 33%
17:00 +37°C° 0.1 mm 2 mps 732 mmHg 38%
18:00 +35°C° 0.1 mm 2 mps 733 mmHg 43%
19:00 +33°C° 0.1 mm 1 mps 734 mmHg 48%
20:00 +32°C° 0.1 mm 1 mps 734 mmHg 50%
21:00 +31°C° 0.1 mm 1 mps 735 mmHg 52%
22:00 +31°C° 0.1 mm 1 mps 736 mmHg 55%
23:00 +30°C° 0.7 mm 1 mps 735 mmHg 61%

12 August, Wednesday

Time Temperature Precipitation Wind Pressure Humidity
00:00 +29°C° 0.7 mm 1 mps 735 mmHg 68%
01:00 +28°C° 0.7 mm 1 mps 735 mmHg 74%
02:00 +27°C° 0.6 mm 1 mps 735 mmHg 78%
03:00 +27°C° 0.6 mm 1 mps 734 mmHg 81%
04:00 +27°C° 0.6 mm 1 mps 734 mmHg 85%
05:00 +27°C° 0.4 mm 1 mps 735 mmHg 84%
06:00 +27°C° 0.4 mm 1 mps 735 mmHg 83%
07:00 +25°C° 0.4 mm 0 mps 736 mmHg 83%
08:00 +28°C° 0.3 mm 1 mps 736 mmHg 77%
09:00 +30°C° 0.3 mm 1 mps 736 mmHg 72%
10:00 +31°C° 0.3 mm 1 mps 736 mmHg 66%
11:00 +32°C° 0.2 mm 2 mps 735 mmHg 60%
12:00 +35°C° 0.2 mm 2 mps 735 mmHg 55%
13:00 +36°C° 0.2 mm 3 mps 734 mmHg 49%
14:00 +36°C° 0.2 mm 3 mps 733 mmHg 49%
15:00 +36°C° 0.2 mm 2 mps 733 mmHg 49%
16:00 +36°C° 0.2 mm 2 mps 732 mmHg 50%
17:00 +34°C° 0.1 mm 2 mps 733 mmHg 54%
18:00 +32°C° 0.1 mm 1 mps 733 mmHg 58%
19:00 +31°C° 0.1 mm 1 mps 734 mmHg 62%
20:00 +30°C° 0.1 mm 1 mps 734 mmHg 62%
21:00 +30°C° 0.1 mm 1 mps 735 mmHg 63%
22:00 +30°C° 0.1 mm 1 mps 736 mmHg 64%
23:00 +29°C° 1 mm 1 mps 735 mmHg 71%
Show more